Location: Narrabri
(30.3170°S, 149.7830°E)
Time: 16:08:34
(UTC+11:00)

Amateur Radio Satellites - All Passes

Search period start: 18 December 2017 15:38
Search period end: 19 December 2017 15:38
Location: Narrabri, 30.3170°S, 149.7830°E

Satellite Date Start Highest point End Downlink Frequencies (MHz)
Time Altitude Azimuth
ITUPSAT 1 18 Dec 15:42:09 15:46:57 70° 104° (ESE) 15:51:48 437.325
CUBESAT XI-V 18 Dec 15:52:53 15:56:52 29° 108° (ESE) 16:00:52 437.345
M-CUBED/EXP-1 PRIME 18 Dec 15:53:55 15:56:19 16° 78° (ENE) 15:58:48 437.505
MOZHAYETS 4 18 Dec 15:56:23 16:00:54 50° 280° (W) 16:05:28
Oscar 19 18 Dec 15:58:14 16:00:39 13° 246° (WSW) 16:03:03 437.125/150
FALCONSAT 3 18 Dec 16:08:14 16:09:56 13° 325° (NW) 16:11:38 435.103
SRMSAT 18 Dec 16:31:55 16:35:19 16° 17° (NNE) 16:38:45 437.500
YUBILEINY 18 Dec 16:34:49 16:42:54 42° 258° (WSW) 16:51:05 435.215
AO-7 18 Dec 16:39:37 16:48:01 87° 70° (ENE) 16:56:19 .
BEESAT 18 Dec 16:50:30 16:53:57 20° 276° (W) 16:57:27 436.000
DOVE 4 18 Dec 16:53:44 16:57:28 20° 85° (E) 17:01:14 437.250
BEESAT 3 18 Dec 17:12:45 17:16:32 48° 119° (ESE) 17:20:19 437.485
ITAMSAT 1 18 Dec 17:15:57 17:21:02 48° 253° (WSW) 17:26:04 435.822/435.867
PCSat 18 Dec 17:16:53 17:21:48 36° 288° (WNW) 17:26:41 145.827
KKS-1 18 Dec 17:19:22 17:23:38 47° 106° (ESE) 17:27:57 437.445
JUGNU 18 Dec 17:24:50 17:29:58 29° 356° (N) 17:35:04 437.505
M-CUBED/EXP-1 PRIME 18 Dec 17:27:39 17:30:36 23° 249° (WSW) 17:33:41 437.505
NO-84 18 Dec 17:28:11 17:32:27 84° 49° (NE) 17:36:38 435.350 FM
CUBESAT XI-V 18 Dec 17:30:41 17:34:09 21° 275° (W) 17:37:37 437.345
STARS 18 Dec 17:51:48 17:55:55 40° 107° (ESE) 18:00:06 437.465
BEESAT 2 18 Dec 18:01:51 18:05:35 43° 120° (ESE) 18:09:19 435.950
SRMSAT 18 Dec 18:19:04 18:23:57 26° 8° (N) 18:28:49 437.500
NUDT-PHONESAT 18 Dec 18:22:02 18:23:56 13° 85° (E) 18:25:49 437.300
LilacSat-2 18 Dec 18:23:56 18:27:11 26° 83° (E) 18:30:23 437.200
AO-85 18 Dec 18:28:24 18:31:36 20° 127° (SE) 18:34:39 145.980
DOVE 4 18 Dec 18:30:20 18:35:07 39° 254° (WSW) 18:39:59 437.250
KAITUO 1B 18 Dec 18:31:44 18:34:33 20° 84° (E) 18:37:22 145.475/437.950
XW-2D 18 Dec 18:32:53 18:36:20 33° 82° (E) 18:39:45 145.860 - 145.880
AO-7 18 Dec 18:34:55 18:39:39 17° 237° (WSW) 18:44:23 .
XW-2B 18 Dec 18:48:41 18:52:24 53° 80° (E) 18:56:05 145.730 - 145.750
XW-2F 18 Dec 18:57:18 19:01:04 67° 79° (E) 19:04:47 145.980 - 146.000
KKS-1 18 Dec 18:59:03 19:00:21 11° 273° (W) 19:01:40 437.445
HO-68 18 Dec 19:07:17 19:13:24 29° 82° (E) 19:19:27 435.675
CUTE-I 18 Dec 19:08:11 19:13:36 66° 78° (ENE) 19:18:56 437.470
NO-84 18 Dec 19:08:30 19:10:10 12° 217° (SW) 19:11:49 435.350 FM
SEEDS 18 Dec 19:09:31 19:10:37 11° 87° (E) 19:11:42 437.485
JUGNU 18 Dec 19:14:10 19:18:29 20° 347° (NNW) 19:22:45 437.505
XW-2C 18 Dec 19:16:19 19:20:03 56° 257° (WSW) 19:23:44 145.795 - 145.815
STRAND 1 18 Dec 19:22:14 19:27:06 45° 107° (ESE) 19:32:01 437.568
CUBEBUG 2 18 Dec 19:29:21 19:32:54 22° 85° (E) 19:36:20 437.445
STARS 18 Dec 19:30:22 19:32:21 13° 274° (W) 19:34:23 437.465
O/OREOS (USA 219) 18 Dec 19:35:12 19:38:53 25° 78° (ENE) 19:42:36 437.305
CUTE 1.7 + AOD 2 18 Dec 19:37:19 19:41:26 47° 81° (E) 19:45:31 437.475
NUDT-PHONESAT 18 Dec 19:54:38 19:57:43 25° 253° (WSW) 20:00:48 437.300
LilacSat-2 18 Dec 19:59:01 20:01:09 15° 250° (WSW) 20:03:17 437.200
KAITUO 1B 18 Dec 20:05:46 20:08:19 18° 251° (WSW) 20:10:53 145.475/437.950
SRMSAT 18 Dec 20:07:33 20:12:39 30° 358° (N) 20:17:44 437.500
AO-85 18 Dec 20:08:27 20:11:57 26° 290° (WNW) 20:15:16 145.980
XW-2D 18 Dec 20:08:47 20:10:07 12° 249° (WSW) 20:11:26 145.860 - 145.880
AO-73 18 Dec 20:10:07 20:12:15 13° 87° (E) 20:14:21 145.935
FO-29 18 Dec 20:36:55 20:42:10 66° 105° (ESE) 20:47:22 435.910
SEEDS 18 Dec 20:42:24 20:46:24 42° 255° (WSW) 20:50:24 437.485
AAUSAT CUBESAT 2 18 Dec 20:49:09 20:53:21 86° 79° (E) 20:57:32 437.432
CUTE-I 18 Dec 20:50:46 20:52:59 13° 245° (WSW) 20:55:12 437.470
HO-68 18 Dec 20:54:23 21:01:07 43° 249° (WSW) 21:07:48 435.675
UWE-3 18 Dec 20:56:35 21:00:59 58° 256° (WSW) 21:05:12 435.000/436.395/437.385
XW-2A 18 Dec 21:02:06 21:05:23 50° 257° (WSW) 21:08:37 145.665 - 145.685
STRAND 1 18 Dec 21:03:20 21:06:24 16° 274° (W) 21:09:31 437.568
CUBEBUG 2 18 Dec 21:05:38 21:09:23 25° 251° (WSW) 21:13:00 437.445
ISS 18 Dec 21:10:02 21:11:21 12° 55° (NE) 21:12:40 437.550
ZACube-1 18 Dec 21:12:48 21:17:09 77° 257° (WSW) 21:21:21 437.345
O/OREOS (USA 219) 18 Dec 21:14:42 21:18:10 22° 244° (WSW) 21:21:41 437.305
CUTE 1.7 + AOD 2 18 Dec 21:15:49 21:16:45 11° 248° (WSW) 21:17:42 437.475
Oscar 11 18 Dec 21:25:20 21:29:42 79° 78° (ENE) 21:34:00 .
TIGRISAT 18 Dec 21:42:57 21:47:16 39° 106° (ESE) 21:51:42 435.000
AO-73 18 Dec 21:44:38 21:48:33 35° 253° (WSW) 21:52:23 145.935
UNISAT 6 18 Dec 21:47:09 21:51:38 49° 105° (ESE) 21:56:13 437.425
nSIGHT-1 18 Dec 21:48:07 21:51:15 55° 48° (NE) 21:54:25 .
SRMSAT 18 Dec 21:56:52 22:01:19 22° 348° (NNW) 22:05:46 437.500
Max Valier Satellite 18 Dec 22:10:21 22:13:30 26° 83° (E) 22:16:36 145.860
EO-88 18 Dec 22:28:51 22:32:07 30° 82° (E) 22:35:21 145.990 - 145.960
ISS 18 Dec 22:44:23 22:47:30 39° 222° (SW) 22:50:39 437.550
DELFI C3 18 Dec 22:48:59 22:52:55 52° 256° (WSW) 22:56:48 145.870
PRISM 18 Dec 22:49:25 22:53:26 68° 103° (ESE) 22:57:32 437.425
EO-79 18 Dec 23:14:34 23:16:26 13° 112° (ESE) 23:18:19 145.935-145.965
TIGRISAT 18 Dec 23:21:19 23:24:02 15° 274° (W) 23:26:48 435.000
nSIGHT-1 18 Dec 23:26:21 23:27:41 12° 214° (SW) 23:29:01 .
UNISAT 6 18 Dec 23:26:41 23:28:32 12° 273° (W) 23:30:23 437.425
POLYITAN 1 18 Dec 23:36:55 23:40:23 24° 109° (ESE) 23:43:52 437.675
AIST 2D 18 Dec 23:40:42 23:44:12 77° 281° (W) 23:47:45 435.315
Max Valier Satellite 18 Dec 23:45:08 23:47:00 14° 250° (WSW) 23:48:52 145.860
SRMSAT 18 Dec 23:48:53 23:49:54 10° 340° (NNW) 23:50:54 437.500
DUCHIFAT 1 19 Dec 00:00:58 00:04:50 35° 107° (ESE) 00:08:46 145.980
QB50P2 19 Dec 00:02:06 00:06:18 57° 105° (ESE) 00:10:34 145.880/145.840
EO-88 19 Dec 00:04:03 00:05:22 12° 249° (WSW) 00:06:43 145.990 - 145.960
ESTCUBE 1 19 Dec 00:08:22 00:12:46 48° 80° (E) 00:17:07 437.505/2401.250
LO-87 19 Dec 00:19:30 00:23:09 72° 257° (WSW) 00:26:44 145.935 - 145.965
BUGSAT 1 19 Dec 00:27:09 00:29:32 15° 111° (ESE) 00:31:56 437.445
NANOSAT C BR1 19 Dec 00:29:19 00:33:35 84° 280° (W) 00:37:56 145.865
EO-79 19 Dec 00:47:41 00:51:44 41° 279° (W) 00:55:51 145.935-145.965
YUBILEINY 19 Dec 01:01:03 01:01:56 10° 114° (ESE) 01:02:49 435.215
Gurwin Techsat 1B 19 Dec 01:04:12 01:07:50 19° 113° (ESE) 01:11:28 435.225
POLYITAN 1 19 Dec 01:12:44 01:16:00 21° 276° (W) 01:19:20 437.675
VELOX 1 19 Dec 01:23:55 01:28:14 44° 80° (E) 01:32:29 145.980
Oscar 19 19 Dec 01:27:48 01:32:45 46° 107° (ESE) 01:37:42 437.125/150
RS-15 19 Dec 01:32:57 01:42:34 37° 73° (ENE) 01:52:09 29.354- 29.394
SPROUT 19 Dec 01:33:05 01:37:26 74° 257° (WSW) 01:41:42 437.525
DUCHIFAT 1 19 Dec 01:38:16 01:40:33 14° 274° (W) 01:42:50 145.980
NO-84 19 Dec 01:43:49 01:46:54 35° 134° (SE) 01:49:45 435.350 FM
SO-50 19 Dec 01:45:14 01:47:42 14° 72° (ENE) 01:50:11 436.795
AO-7 19 Dec 01:45:48 01:48:43 12° 126° (SE) 01:51:38 .
ESTCUBE 1 19 Dec 01:47:19 01:49:04 12° 247° (WSW) 01:50:49 437.505/2401.250
AO-91 19 Dec 01:49:48 01:53:39 77° 103° (ESE) 01:58:02 145.960
BUGSAT 1 19 Dec 02:00:39 02:04:29 34° 278° (W) 02:08:25 437.445
DX 1 19 Dec 02:07:10 02:10:49 25° 83° (E) 02:14:26 434.975-435.025
Gurwin Techsat 1B 19 Dec 02:42:21 02:47:22 42° 279° (W) 02:52:27 435.225
YUBILEINY 19 Dec 02:51:15 03:00:05 75° 96° (E) 03:08:51 435.215
ITAMSAT 1 19 Dec 02:51:30 02:54:05 14° 115° (ESE) 02:56:40 435.822/435.867
VELOX 1 19 Dec 03:02:07 03:04:12 13° 248° (WSW) 03:06:17 145.980
Oscar 19 19 Dec 03:09:06 03:12:11 16° 274° (W) 03:15:17 437.125/150
50 SAT 19 Dec 03:15:12 03:17:57 26° 254° (WSW) 03:20:41 437.505
UKube-1 19 Dec 03:17:56 03:22:18 73° 256° (WSW) 03:26:38 .
BEESAT 19 Dec 03:19:29 03:21:37 13° 86° (E) 03:23:44 436.000
SO-50 19 Dec 03:23:03 03:27:43 49° 240° (WSW) 03:32:24 436.795
AO-7 19 Dec 03:31:43 03:40:02 74° 109° (ESE) 03:48:23 .
DX 1 19 Dec 03:43:25 03:46:48 22° 250° (WSW) 03:50:09 434.975-435.025
RS-15 19 Dec 03:44:01 03:54:26 50° 236° (SW) 04:05:02 29.354- 29.394
ITUPSAT 1 19 Dec 03:48:55 03:53:05 28° 82° (E) 03:57:10 437.325
MOZHAYETS 4 19 Dec 03:56:59 04:01:34 59° 80° (E) 04:06:03
CUBESAT XI-V 19 Dec 03:57:26 03:58:31 11° 87° (E) 03:59:35 437.345
M-CUBED/EXP-1 PRIME 19 Dec 04:07:35 04:11:04 49° 285° (WNW) 04:14:24 437.505
ITAMSAT 1 19 Dec 04:27:54 04:32:58 56° 281° (W) 04:38:09 435.822/435.867
YUBILEINY 19 Dec 04:50:42 04:55:49 17° 261° (W) 05:00:55 435.215
BEESAT 19 Dec 04:54:55 04:59:33 48° 254° (WSW) 05:04:08 436.000
KKS-1 19 Dec 05:17:22 05:19:55 15° 85° (E) 05:22:27 437.445
ISS 19 Dec 05:17:29 05:19:26 15° 145° (SE) 05:21:22 437.550
XW-2B 19 Dec 05:26:12 05:27:35 12° 111° (ESE) 05:28:58 145.730 - 145.750
ITUPSAT 1 19 Dec 05:26:55 05:30:40 23° 249° (WSW) 05:34:22 437.325
AO-7 19 Dec 05:27:53 05:33:15 18° 276° (W) 05:38:40 .
DOVE 4 19 Dec 05:29:59 05:34:07 67° 281° (W) 05:38:28 437.250
CUBESAT XI-V 19 Dec 05:31:33 05:36:05 52° 255° (WSW) 05:40:35 437.345
XW-2F 19 Dec 05:33:44 05:35:43 14° 110° (ESE) 05:37:43 145.980 - 146.000
HO-68 19 Dec 05:34:04 05:36:08 11° 122° (ESE) 05:38:12 435.675
MOZHAYETS 4 19 Dec 05:37:36 05:38:07 10° 246° (WSW) 05:38:37
STARS 19 Dec 05:48:49 05:50:30 12° 86° (E) 05:52:10 437.465
O/OREOS (USA 219) 19 Dec 05:50:51 05:54:21 21° 116° (ESE) 05:57:50 437.305
XW-2C 19 Dec 05:51:50 05:55:04 27° 106° (ESE) 05:58:19 145.795 - 145.815
nSIGHT-1 19 Dec 05:55:15 05:58:24 47° 136° (SE) 06:01:30 .
RS-15 19 Dec 06:06:44 06:10:22 12° 208° (SSW) 06:14:01 29.354- 29.394
PCSat 19 Dec 06:08:50 06:14:12 69° 68° (ENE) 06:19:36 145.827
CUBEBUG 2 19 Dec 06:23:57 06:24:50 10° 114° (ESE) 06:25:44 437.445
CUTE-I 19 Dec 06:24:09 06:29:22 61° 106° (ESE) 06:34:40 437.470
CUTE 1.7 + AOD 2 19 Dec 06:25:15 06:27:57 17° 110° (ESE) 06:30:39 437.475
NUDT-PHONESAT 19 Dec 06:26:48 06:30:26 52° 104° (ESE) 06:34:05 437.300
LilacSat-2 19 Dec 06:33:08 06:36:57 69° 281° (W) 06:40:49 437.200
KAITUO 1B 19 Dec 06:38:17 06:42:02 84° 102° (ESE) 06:45:48 145.475/437.950
XW-2D 19 Dec 06:41:32 06:45:16 54° 280° (W) 06:49:02 145.860 - 145.880
KKS-1 19 Dec 06:52:20 06:56:32 37° 253° (WSW) 07:00:40 437.445
ISS 19 Dec 06:52:54 06:56:03 42° 310° (NW) 06:59:11 437.550
BEESAT 3 19 Dec 06:56:50 07:00:11 30° 68° (ENE) 07:03:32 437.485
XW-2B 19 Dec 06:57:54 07:01:22 33° 278° (W) 07:04:52 145.730 - 145.750
XW-2F 19 Dec 07:06:14 07:09:31 27° 277° (W) 07:12:49 145.980 - 146.000
HO-68 19 Dec 07:15:33 07:22:42 80° 106° (ESE) 07:29:56 435.675
FALCONSAT 3 19 Dec 07:17:50 07:20:20 17° 33° (NNE) 07:22:51 435.103
STARS 19 Dec 07:22:42 07:26:59 45° 254° (WSW) 07:31:12 437.465
XW-2C 19 Dec 07:27:08 07:29:12 14° 275° (W) 07:31:16 145.795 - 145.815
SEEDS 19 Dec 07:27:36 07:31:42 57° 104° (ESE) 07:35:51 437.485
XW-2A 19 Dec 07:27:57 07:30:18 18° 108° (ESE) 07:32:40 145.665 - 145.685
O/OREOS (USA 219) 19 Dec 07:29:44 07:33:42 28° 282° (WNW) 07:37:37 437.305
AAUSAT CUBESAT 2 19 Dec 07:33:44 07:37:07 25° 108° (ESE) 07:40:31 437.432
STRAND 1 19 Dec 07:39:04 07:43:19 25° 83° (E) 07:47:30 437.568
UWE-3 19 Dec 07:46:42 07:51:15 53° 105° (ESE) 07:55:52 435.000/436.395/437.385
BEESAT 2 19 Dec 07:47:31 07:50:53 29° 68° (ENE) 07:54:16 435.950
FO-29 19 Dec 07:52:55 07:55:56 13° 86° (E) 07:59:04 435.910
PCSat 19 Dec 07:55:21 07:58:03 14° 233° (SW) 08:00:45 145.827
CUBEBUG 2 19 Dec 07:56:09 08:00:47 63° 280° (W) 08:05:33 437.445
CUTE 1.7 + AOD 2 19 Dec 07:59:45 08:03:29 30° 277° (W) 08:07:15 437.475
ZACube-1 19 Dec 08:02:05 08:06:22 39° 106° (ESE) 08:10:41 437.345
CUTE-I 19 Dec 08:07:40 08:09:42 12° 273° (W) 08:11:45 437.470
Oscar 11 19 Dec 08:14:30 08:18:13 28° 108° (ESE) 08:21:58 .
AO-73 19 Dec 08:32:54 08:37:29 81° 103° (ESE) 08:42:07 145.935
AO-85 19 Dec 08:35:11 08:39:50 31° 69° (ENE) 08:44:28 145.980
BEESAT 3 19 Dec 08:35:32 08:37:43 15° 234° (SW) 08:39:54 437.485
FALCONSAT 3 19 Dec 08:55:24 08:59:07 85° 22° (NNE) 09:02:50 435.103
XW-2A 19 Dec 09:00:33 09:02:50 17° 276° (W) 09:05:06 145.665 - 145.685
HO-68 19 Dec 09:07:45 09:10:58 13° 273° (W) 09:14:12 435.675
AAUSAT CUBESAT 2 19 Dec 09:09:36 09:12:27 18° 275° (W) 09:15:21 437.432
STRAND 1 19 Dec 09:17:54 09:22:22 29° 250° (WSW) 09:26:47 437.568
BEESAT 2 19 Dec 09:26:12 09:28:36 16° 235° (SW) 09:31:00 435.950
UWE-3 19 Dec 09:26:36 09:27:54 11° 272° (W) 09:29:13 435.000/436.395/437.385
DELFI C3 19 Dec 09:28:11 09:31:45 35° 106° (ESE) 09:35:22 145.870
FO-29 19 Dec 09:34:33 09:41:10 82° 256° (WSW) 09:48:33 435.910
ZACube-1 19 Dec 09:40:08 09:42:42 15° 274° (W) 09:45:18 437.345
TIGRISAT 19 Dec 09:42:13 09:44:14 13° 87° (E) 09:46:13 435.000
UNISAT 6 19 Dec 09:46:01 09:48:52 16° 86° (E) 09:51:38 437.425
Oscar 11 19 Dec 09:51:17 09:54:17 18° 275° (W) 09:57:19 .
AO-85 19 Dec 10:15:36 10:20:14 29° 237° (WSW) 10:24:46 145.980
Max Valier Satellite 19 Dec 10:15:55 10:19:39 75° 281° (W) 10:23:26 145.860
EO-88 19 Dec 10:33:14 10:36:52 66° 281° (W) 10:40:33 145.990 - 145.960
FALCONSAT 3 19 Dec 10:34:53 10:38:23 39° 187° (S) 10:41:54 435.103
PRISM 19 Dec 10:37:34 10:39:57 15° 85° (E) 10:42:19 437.425
RS-15 19 Dec 10:40:09 10:49:37 28° 133° (SE) 10:59:19 29.354- 29.394
LO-87 19 Dec 10:50:22 10:52:49 17° 109° (ESE) 10:55:17 145.935 - 145.965
ESTCUBE 1 19 Dec 11:02:40 11:06:11 22° 110° (ESE) 11:09:42 437.505/2401.250
DELFI C3 19 Dec 11:05:14 11:06:33 11° 273° (W) 11:07:53 145.870
AIST 2D 19 Dec 11:13:00 11:14:10 11° 86° (E) 11:15:20 435.315
TIGRISAT 19 Dec 11:16:44 11:21:05 42° 254° (WSW) 11:25:16 435.000
UNISAT 6 19 Dec 11:21:28 11:25:36 34° 253° (WSW) 11:29:37 437.425
FO-29 19 Dec 11:23:57 11:25:28 11° 244° (WSW) 11:27:00 435.910
QB50P2 19 Dec 11:54:06 11:56:31 15° 86° (E) 11:58:53 145.880/145.840
SO-50 19 Dec 12:00:13 12:04:19 31° 123° (ESE) 12:08:18 436.795
PRISM 19 Dec 12:11:28 12:15:12 32° 253° (WSW) 12:18:55 437.425
FALCONSAT 3 19 Dec 12:14:20 12:17:52 41° 171° (S) 12:21:25 435.103
VELOX 1 19 Dec 12:16:12 12:19:19 19° 110° (ESE) 12:22:28 145.980
NANOSAT C BR1 19 Dec 12:19:53 12:23:19 24° 84° (E) 12:26:43 145.865
SPROUT 19 Dec 12:20:19 12:24:16 37° 106° (ESE) 12:28:18 437.525
LO-87 19 Dec 12:23:17 12:26:00 20° 276° (W) 12:28:45 145.935 - 145.965
EO-79 19 Dec 12:37:47 12:41:56 47° 81° (E) 12:46:00 145.935-145.965
ESTCUBE 1 19 Dec 12:39:04 12:42:47 25° 277° (W) 12:46:32 437.505/2401.250
AIST 2D 19 Dec 12:44:19 12:47:19 26° 254° (WSW) 12:50:17 435.315
RS-15 19 Dec 12:51:26 13:03:03 77° 293° (WNW) 13:15:10 29.354- 29.394
DX 1 19 Dec 12:59:27 13:00:33 11° 114° (ESE) 13:01:38 434.975-435.025
POLYITAN 1 19 Dec 13:01:58 13:06:17 83° 256° (WSW) 13:10:30 437.675
DUCHIFAT 1 19 Dec 13:25:37 13:29:48 55° 256° (WSW) 13:33:54 145.980
Gurwin Techsat 1B 19 Dec 13:27:55 13:29:12 11° 88° (E) 13:30:28 435.225
QB50P2 19 Dec 13:28:27 13:32:19 33° 253° (WSW) 13:36:08 145.880/145.840
JUGNU 19 Dec 13:33:39 13:37:44 19° 15° (NNE) 13:41:50 437.505
50 SAT 19 Dec 13:35:09 13:37:46 24° 107° (ESE) 13:40:25 437.505
SO-50 19 Dec 13:41:10 13:44:30 20° 289° (WNW) 13:47:47 436.795
AO-91 19 Dec 13:44:59 13:49:46 31° 84° (E) 13:54:24 145.960
Oscar 19 19 Dec 13:45:41 13:49:57 26° 83° (E) 13:54:10 437.125/150
BUGSAT 1 19 Dec 13:47:41 13:51:49 51° 80° (E) 13:55:49 437.445
VELOX 1 19 Dec 13:51:44 13:55:30 28° 278° (W) 13:59:19 145.980
YUBILEINY 19 Dec 13:53:04 13:57:35 15° 99° (E) 14:02:05 435.215
FALCONSAT 3 19 Dec 13:53:23 13:57:05 71° 336° (NNW) 14:00:48 435.103
NANOSAT C BR1 19 Dec 13:55:38 13:58:50 21° 251° (WSW) 14:01:59 145.865
SPROUT 19 Dec 13:58:09 14:00:14 13° 274° (W) 14:02:19 437.525
UKube-1 19 Dec 14:06:22 14:10:25 42° 106° (ESE) 14:14:33 .
EO-79 19 Dec 14:16:02 14:17:10 11° 247° (WSW) 14:18:19 145.935-145.965
DX 1 19 Dec 14:31:59 14:36:11 50° 280° (W) 14:40:28 434.975-435.025
ITUPSAT 1 19 Dec 14:50:41 14:53:57 18° 112° (ESE) 14:57:14 437.325
MOZHAYETS 4 19 Dec 14:53:12 14:57:12 29° 108° (ESE) 15:01:14
PCSat 19 Dec 15:03:47 15:07:20 17° 126° (SE) 15:10:52 145.827
Gurwin Techsat 1B 19 Dec 15:04:08 15:09:29 67° 255° (WSW) 15:14:46 435.225
RS-15 19 Dec 15:09:11 15:13:45 13° 279° (W) 15:18:25 29.354- 29.394
JUGNU 19 Dec 15:21:09 15:26:14 29° 5° (N) 15:31:19 437.505
AO-91 19 Dec 15:21:25 15:25:57 28° 250° (WSW) 15:30:24 145.960
Oscar 19 19 Dec 15:24:47 15:29:08 28° 250° (WSW) 15:33:27 437.125/150
FALCONSAT 3 19 Dec 15:33:49 15:35:49 14° 326° (NW) 15:37:48 435.103
